DW8500 Weather Reports


Display with metric or nautical units.
time (UTC)temp
F
wind
direction
speed
MPH
gust
MPH
rain 1hr
in
rain 24hr
in
rain mn
in
humidity
%
barometer
mb
20260504030830 39 108 0.0 1.0 0.00 0.02 0.02 52 1009.8
20260504030242 40 259 0.0 1.0 0.00 0.02 0.02 55 1009.9
20260504030003 39 259 0.0 1.0 0.00 0.02 0.02 54 1010.2
20260504025802 40 273 0.0 1.0 0.00 0.02 0.02 51 1009.9
20260504024752 41 296 0.0 2.0 0.00 0.02 0.02 48 1009.8
20260504024508 41 297 0.0 2.0 0.00 0.02 0.02 47 1010.2
20260504024308 41 297 0.0 2.0 0.00 0.02 0.02 47 1009.8
20260504023808 41 270 0.0 1.0 0.00 0.02 0.02 46 1009.8
20260504023246 41 258 0.0 0.0 0.00 0.02 0.02 46 1009.7
20260504022745 41 258 0.0 0.0 0.00 0.02 0.02 47 1009.6
20260504022243 41 258 0.0 0.0 0.00 0.02 0.02 48 1009.7
20260504021743 41 263 0.0 0.0 0.00 0.02 0.02 48 1009.7
20260504021240 41 248 0.0 0.0 0.00 0.02 0.02 49 1009.7
20260504020743 41 245 0.0 0.0 0.00 0.02 0.02 48 1009.7
20260504020316 41 249 0.0 0.0 0.00 0.02 0.02 49 1009.7
20260504015755 41 259 0.0 0.0 0.00 0.02 0.02 48 1009.7
20260504015308 40 259 0.0 0.0 0.00 0.02 0.02 50 1009.6
20260504014746 40 259 0.0 0.0 0.00 0.02 0.02 50 1009.6
20260504014244 40 259 0.0 0.0 0.00 0.02 0.02 50 1009.6
20260504013743 40 259 0.0 0.0 0.00 0.02 0.02 51 1009.5
20260504013258 40 257 0.0 0.0 0.00 0.02 0.02 51 1009.6
20260504012757 41 260 0.0 0.0 0.00 0.02 0.02 50 1009.4
20260504012312 41 260 0.0 0.0 0.00 0.02 0.02 49 1009.4
20260504011752 41 256 0.0 0.0 0.00 0.02 0.02 49 1009.4
20260504011244 41 256 0.0 0.0 0.00 0.02 0.02 49 1009.4
20260504010804 41 255 0.0 0.0 0.00 0.02 0.02 49 1009.2
20260504010300 42 251 0.0 0.0 0.00 0.02 0.02 48 1009.1
20260504005758 42 251 0.0 0.0 0.00 0.02 0.02 47 1009.1
20260504005256 42 251 0.0 0.0 0.00 0.02 0.02 46 1009.1
20260504004755 43 251 0.0 0.0 0.00 0.02 0.02 46 1008.9
20260504004251 43 251 0.0 0.0 0.00 0.02 0.02 45 1008.8
20260504003750 43 251 0.0 0.0 0.00 0.02 0.02 43 1008.7
20260504003247 44 251 0.0 0.0 0.00 0.02 0.02 41 1008.7
20260504003011 43 251 0.0 0.0 0.00 0.02 0.02 43 1009.0
20260504002807 44 251 0.0 0.0 0.00 0.02 0.02 43 1008.7
20260504002240 44 251 0.0 1.0 0.00 0.02 0.02 43 1008.7
20260504001801 45 251 0.0 1.0 0.00 0.02 0.02 41 1008.6
20260504001257 45 250 0.0 1.0 0.00 0.02 0.02 41 1008.5
20260504000756 46 248 0.0 1.0 0.00 0.02 0.02 39 1008.6
20260504000252 46 248 0.0 3.0 0.00 0.02 0.02 38 1008.5
20260503235751 47 248 0.0 3.0 0.00 0.04 0.02 39 1008.4
20260503235251 47 236 0.0 3.0 0.00 0.04 0.02 36 1008.4
20260503234751 47 268 1.0 3.0 0.00 0.04 0.02 37 1008.4
20260503234508 47 315 0.0 1.0 0.00 0.04 0.02 37 1008.6
20260503234308 47 260 0.0 1.0 0.00 0.04 0.02 37 1008.4
20260503233749 48 286 0.0 4.0 0.00 0.04 0.02 37 1008.2
20260503233244 48 284 1.0 4.0 0.00 0.04 0.02 35 1008.1
20260503232744 49 259 1.0 2.0 0.00 0.04 0.02 35 1008.1
20260503232244 49 356 0.0 3.0 0.00 0.04 0.02 34 1008.1
20260503231743 49 253 1.0 4.0 0.00 0.04 0.02 33 1008.2
20260503231240 49 325 1.0 4.0 0.00 0.04 0.02 32 1008.2
20260503230742 49 290 1.0 10.0 0.00 0.04 0.02 31 1008.0
20260503230241 49 292 3.0 10.0 0.00 0.04 0.02 31 1008.0
20260503225248 50 226 2.0 10.0 0.00 0.05 0.02 30 1007.9
20260503224749 50 57 2.0 9.0 0.00 0.05 0.02 32 1008.0
20260503224248 50 257 1.0 7.0 0.00 0.05 0.02 31 1007.9
20260503223748 50 252 3.0 7.0 0.00 0.05 0.02 30 1007.8
20260503223246 50 287 3.0 8.0 0.00 0.05 0.02 29 1007.7
20260503222747 50 245 3.0 12.0 0.00 0.05 0.02 30 1007.7
20260503222241 50 65 3.0 13.0 0.00 0.05 0.02 30 1007.7
20260503221746 51 290 3.0 16.0 0.00 0.05 0.02 30 1007.6
20260503221243 51 314 4.0 10.0 0.00 0.05 0.02 29 1007.5
20260503220743 52 277 3.0 16.0 0.00 0.05 0.02 27 1007.5
20260503220239 52 156 3.0 16.0 0.00 0.05 0.02 28 1007.4
20260503215740 52 273 4.0 21.0 0.00 0.09 0.02 27 1007.6
20260503215257 51 288 6.0 21.0 0.00 0.09 0.02 28 1007.3
20260503214755 51 349 5.0 14.0 0.00 0.09 0.02 28 1007.3
20260503214251 51 250 4.0 12.0 0.00 0.09 0.02 28 1007.1
20260503213751 51 278 4.0 10.0 0.00 0.09 0.02 27 1007.1
20260503213245 51 45 3.0 7.0 0.00 0.09 0.02 29 1007.2
20260503212744 50 23 1.0 18.0 0.00 0.09 0.02 30 1007.2
20260503212241 51 281 7.0 18.0 0.00 0.09 0.02 28 1007.0
20260503211742 51 20 5.0 16.0 0.00 0.09 0.02 27 1006.9
20260503211258 51 281 5.0 10.0 0.00 0.09 0.02 27 1006.9
20260503210818 51 221 4.0 16.0 0.00 0.09 0.02 29 1006.9
20260503210253 50 313 5.0 16.0 0.00 0.09 0.02 28 1006.8
20260503205754 50 359 6.0 14.0 0.00 0.09 0.02 28 1006.8
20260503205251 51 266 5.0 14.0 0.00 0.09 0.02 28 1006.7
20260503204751 51 47 4.0 13.0 0.00 0.09 0.02 29 1006.6
20260503204250 51 233 3.0 14.0 0.00 0.09 0.02 31 1006.5
20260503203805 51 248 3.0 14.0 0.00 0.09 0.02 32 1006.6
20260503203243 51 13 4.0 12.0 0.00 0.09 0.02 28 1006.5
20260503202743 51 14 4.0 12.0 0.00 0.09 0.02 29 1006.5
20260503202257 51 285 5.0 11.0 0.00 0.09 0.02 28 1006.5
20260503201756 51 235 4.0 10.0 0.00 0.09 0.02 28 1006.6
20260503201244 51 278 3.0 15.0 0.00 0.09 0.02 29 1006.5
20260503200804 51 257 4.0 15.0 0.00 0.09 0.02 29 1006.4
20260503200239 52 300 4.0 13.0 0.00 0.09 0.02 30 1006.4
20260503195816 52 307 5.0 13.0 0.00 0.09 0.02 28 1006.5
20260503195310 52 28 3.0 10.0 0.00 0.09 0.02 29 1006.5
20260503194746 51 291 3.0 10.0 0.00 0.09 0.02 28 1006.4
20260503194245 52 327 2.0 8.0 0.00 0.09 0.02 29 1006.4
20260503193745 52 304 2.0 16.0 0.00 0.09 0.02 30 1006.3
20260503193241 51 300 4.0 16.0 0.00 0.09 0.02 28 1006.5
20260503192742 51 277 4.0 9.0 0.00 0.09 0.02 29 1006.3
20260503192259 51 28 3.0 11.0 0.00 0.09 0.02 30 1006.4
20260503191738 52 272 4.0 11.0 0.00 0.09 0.02 28 1006.4
20260503191252 52 18 3.0 7.0 0.00 0.09 0.02 29 1006.4
20260503190750 52 276 1.0 6.0 0.00 0.09 0.02 31 1006.3
20260503190247 51 63 3.0 11.0 0.00 0.09 0.02 31 1006.4
20260503185748 51 352 3.0 11.0 0.00 0.14 0.02 30 1006.5
20260503185244 51 285 3.0 12.0 0.00 0.14 0.02 31 1006.5
20260503184743 51 281 3.0 12.0 0.00 0.14 0.02 33 1006.6
20260503184524 51 264 4.0 14.0 0.00 0.14 0.02 30 1006.8
20260503184319 51 96 3.0 14.0 0.00 0.14 0.02 33 1006.5
20260503183758 52 259 5.0 14.0 0.00 0.14 0.02 30 1006.4
20260503183255 52 311 4.0 13.0 0.00 0.14 0.02 32 1006.4
20260503182752 52 277 3.0 10.0 0.00 0.14 0.02 31 1006.4
20260503182247 52 257 3.0 10.0 0.00 0.14 0.02 33 1006.4
20260503181742 51 271 2.0 11.0 0.00 0.14 0.02 34 1006.4
20260503181258 51 266 3.0 11.0 0.00 0.14 0.02 34 1006.4
20260503180738 51 292 3.0 13.0 0.00 0.14 0.02 34 1006.4
20260503180253 51 131 1.0 13.0 0.00 0.14 0.02 35 1006.5
20260503175754 51 308 4.0 13.0 0.00 0.31 0.02 33 1006.5
20260503174751 53 82 5.0 10.0 0.00 0.31 0.02 34 1006.3
20260503174250 52 77 5.0 9.0 0.00 0.31 0.02 36 1006.4
20260503173809 51 3 2.0 8.0 0.00 0.31 0.02 39 1006.4
20260503173322 51 51 4.0 9.0 0.00 0.31 0.02 40 1006.5
20260503172739 51 63 3.0 9.0 0.00 0.31 0.02 38 1006.5
20260503172256 50 129 3.0 9.0 0.00 0.31 0.02 37 1006.5
20260503171754 50 294 1.0 9.0 0.00 0.31 0.02 41 1006.6
20260503171250 50 240 3.0 9.0 0.00 0.31 0.02 38 1006.6
20260503170750 50 284 2.0 10.0 0.00 0.31 0.02 39 1006.5
20260503170249 49 331 4.0 13.0 0.00 0.31 0.02 39 1006.6
20260503150745 46 326 4.0 13.0 0.00 0.31 0.02 49 1007.0
20260503150244 45 290 4.0 13.0 0.00 0.31 0.02 48 1007.0
20260503140258 41 319 2.0 8.0 0.02 0.31 0.02 61 1007.2
20260503131256 43 297 2.0 9.0 0.00 0.29 0.00 59 1007.3
20260503130755 42 337 1.0 9.0 0.00 0.29 0.00 58 1007.2
20260503110747 39 77 1.0 10.0 0.00 0.39 0.00 61 1007.1
20260503110245 39 264 2.0 10.0 0.00 0.39 0.00 61 1007.0
20260503090251 39 12 1.0 4.0 0.00 0.43 0.00 61 1007.4
20260503081242 40 281 1.0 4.0 0.00 0.43 0.00 62 1008.1
20260503080745 40 206 0.0 2.0 0.00 0.43 0.00 62 1008.2
20260503080303 40 328 1.0 3.0 0.00 0.43 0.00 62 1008.3
20260503072811 40 278 0.0 1.0 0.00 0.43 0.00 62 1008.6
20260503072248 40 198 0.0 1.0 0.00 0.43 0.00 62 1008.8
20260503071807 40 221 0.0 1.0 0.00 0.43 0.00 62 1008.7
20260503071243 40 241 0.0 2.0 0.00 0.43 0.00 62 1008.7
20260503070745 40 284 0.0 2.0 0.00 0.43 0.00 62 1008.7
20260503070238 40 266 0.0 3.0 0.00 0.43 0.00 62 1008.8
20260503060249 41 158 0.0 1.0 0.00 0.43 0.00 63 1009.8
20260503054804 41 262 0.0 1.0 0.00 0.43 0.00 63 1009.8
20260503054240 42 263 0.0 1.0 0.00 0.43 0.00 63 1009.8
20260503053741 42 263 0.0 1.0 0.00 0.43 0.00 63 1009.9
20260503053238 41 277 0.0 1.0 0.00 0.43 0.00 64 1009.9
20260503052756 41 277 0.0 1.0 0.00 0.43 0.00 64 1010.0
20260503052312 41 293 0.0 1.0 0.00 0.43 0.00 64 1010.0
20260503051751 41 262 0.0 0.0 0.00 0.43 0.00 64 1010.0
20260503051242 41 262 0.0 0.0 0.00 0.43 0.00 64 1010.0
20260503050742 41 262 0.0 0.0 0.00 0.43 0.00 63 1010.1
20260503050242 41 319 0.0 1.0 0.00 0.43 0.00 63 1010.2
20260503045742 42 319 0.0 3.0 0.00 0.43 0.00 63 1010.3
20260503045243 42 92 0.0 3.0 0.00 0.43 0.00 63 1010.3
20260503044744 42 231 1.0 3.0 0.00 0.43 0.00 63 1010.3
20260503044241 42 174 0.0 1.0 0.00 0.43 0.00 63 1010.4
20260503043743 42 144 0.0 1.0 0.00 0.43 0.00 63 1010.4
20260503043241 42 143 0.0 1.0 0.00 0.43 0.00 63 1010.4
20260503042742 42 143 0.0 2.0 0.00 0.43 0.00 62 1010.4
20260503042238 42 271 0.0 2.0 0.00 0.43 0.00 62 1010.7
20260503041757 42 250 0.0 2.0 0.00 0.43 0.00 62 1010.8
20260503041240 42 246 0.0 2.0 0.00 0.43 0.00 62 1010.7
20260503040814 43 219 0.0 2.0 0.00 0.43 0.00 62 1010.6
20260503040248 43 76 0.0 2.0 0.00 0.43 0.00 61 1010.6
20260503035747 43 79 0.0 2.0 0.00 0.43 0.43 61 1010.7
20260503035238 43 271 1.0 2.0 0.00 0.43 0.43 61 1010.6
20260503034752 43 319 0.0 2.0 0.00 0.43 0.43 61 1010.6
20260503034508 43 350 0.0 4.0 0.00 0.43 0.43 61 1010.8
20260503034302 43 349 0.0 4.0 0.00 0.43 0.43 61 1010.8
20260503033735 43 233 2.0 5.0 0.00 0.43 0.43 61 1010.7
20260503033255 44 310 1.0 5.0 0.00 0.43 0.43 61 1010.7
20260503032750 44 224 1.0 5.0 0.00 0.43 0.43 61 1010.7
20260503032248 44 248 2.0 5.0 0.00 0.43 0.43 61 1010.5
20260503031739 44 271 1.0 5.0 0.00 0.43 0.43 61 1010.6
20260503031237 44 80 1.0 6.0 0.00 0.43 0.43 61 1010.5